Regional Weather Roundup
Issued by NWS Jackson, KY

Home | Current Version | Previous Version | Graphics & Text | Print | Product List | Glossary On
Versions: 1 2 3 4 5 6 7 8 9 10 11 12 13 14 15 16 17 18 19 20 21 22 23 24 25 26 27 28 29 30 31 32 33 34 35 36 37 38 39 40 41 42 43 44 45 46 47 48 49 50
000
ASUS43 KJKL 210710
RWRJKL

EAST KENTUCKY HOURLY WEATHER ROUNDUP
NATIONAL WEATHER SERVICE JACKSON KY
300 AM EDT SUN SEP 21 2014

NOTE: "FAIR" INDICATES FEW OR NO CLOUDS BELOW 12,000 FEET WITH
NO SIGNIFICANT WEATHER AND/OR OBSTRUCTIONS TO VISIBILITY.

* THESE REPORTS ARE NOT UNDER NWS QUALITY CONTROL AND MAY NOT
  REPORT WEATHER SUCH AS PRECIPITATION AND FOG.

KYZ079-080-083-085-087-088-110-112-115-119-120-210800
...EASTERN KENTUCKY...

CITY           SKY/WX    TMP DP  RH WIND       PRES   REMARKS
JACKSON        PTCLDY    65  62  90 VRB3      29.98F
LONDON         MOCLDY    64  60  87 CALM      30.00F
SOMERSET*      CLEAR     63  63 100 CALM      30.00F FOG
MONTICELLO*    CLEAR     61  61 100 CALM      30.01F FOG
WILLIAMSBURG*  MOCLDY    63  63 100 CALM      30.01F
MIDDLESBORO*   PTCLDY    59  58  97 CALM      30.03F
HARLAN APT*    CLOUDY    61  61 100 MISG      30.03F VSB<1/4
BLACK MTN*       N/A     61  55  82 SW5         N/A
PIKEVILLE APT* CLEAR     63  63 100 CALM      29.99F
BIG SANDY*     PTSUNNY   65  64  94 SW3       29.97F
MOREHEAD APT*  SUNNY     66  63  88 S6        29.96F
$$

KYZ035-036-041-042-044-050-067-078-099-210800
...CENTRAL KENTUCKY...

CITY           SKY/WX    TMP DP  RH WIND       PRES   REMARKS
MT STERLING*   CLEAR     64  63  94 SW7       29.95F
FLEMING/MASON* CLEAR     66  63  88 S6        29.92F
DANVILLE*      CLEAR     64  63  94 SW5       29.96F
RICHMOND*      CLEAR     68  61  77 S7        29.95F
LEXINGTON      CLEAR     70  63  78 SW9       29.93F
FRANKFORT      CLEAR     68  64  87 SW7       29.91F
$$

KYZ091>093-OHZ055-061-077-WVZ005-015-034-035-042-210800
...SOUTHERN OHIO/WEST VIRGINIA...

CITY           SKY/WX    TMP DP  RH WIND       PRES   REMARKS
COVINGTON      PTCLDY    69  64  84 S8        29.87F
COLUMBUS       CLOUDY    72  63  73 S9        29.84F
DAYTON         MOCLDY    72  65  78 SW14      29.85F
WILMINGTON     PTCLDY    67  63  87 S10       29.87F
HUNTINGTON     PTCLDY    66  64  93 S8        29.92F
CHARLESTON     PTCLDY    61  61 100 CALM      29.94F
PINEVILLE*     CLEAR     59  59 100 MISG      30.06S
BECKLEY        CLEAR     60  54  80 S3        30.03F
BLUEFIELD      CLEAR     61  54  77 W5        30.05F
$$

VAZ002-007-008-TNZ017-027-036-066-071-210800
...SOUTHWEST VIRGINIA/EAST TENNESSEE...

CITY           SKY/WX    TMP DP  RH WIND       PRES   REMARKS
WISE*          PTCLDY    57  55  94 SW3       30.07S
JONESVILLE*    PTSUNNY   57  57 100 CALM      30.05F
ABINGDON*      CLEAR     59  57  93 CALM      30.04F
BRISTOL        CLEAR     56  53  90 CALM      30.02F
KNOXVILLE      CLEAR     65  61  87 S3        30.01S
OAK RIDGE      PTCLDY    65  62  90 CALM      30.03F
CROSSVILLE     CLEAR     65  59  81 SW3       30.06F
NASHVILLE      PTCLDY    66  64  93 S5        29.99F
$$

...KEY TO REMARKS...
VSB - VISIBILITY IN MILES
WCI - WIND CHILL INDEX
HX  - HEAT INDEX

$$


USA.gov is the U.S. government's official web portal to all federal, state and local government web resources and services.